Weather Roundup
Issued by NWS

Home | Current Version | Previous Version | Graphics & Text | Print | Product List | Glossary Off
Versions: 1 2 3 4 5 6 7 8 9 10 11 12 13 14 15 16 17 18 19 20 21 22 23 24 25 26 27 28 29 30 31 32 33 34 35 36 37 38 39 40 41 42 43 44 45 46 47 48 49 50

000
NZUS93 KARX 231310
HRRWXR

CURRENT HOURLY OBSERVATIONS ACROSS
MUCH OF THE UPPER MISSISSIPPI VALLEY
NATIONAL WEATHER SERVICE LA CROSSE WI
800 AM CDT SAT JUL 23 2016


...SOUTHEAST MINNESOTA...


CITY           SKY/WX    TMP DP  RH WIND       PRES   REMARKS
ROCHESTER      CLOUDY    78  77  96 SE7       29.94F FOG
ROCHESTER/MAYO CLOUDY    77  77 100 E6        29.94F
WINONA         CLOUDY    73  72  94 SE7       29.95S
AUSTIN         CLOUDY    79  75  89 SE6       29.91F
ALBERT LEA     CLOUDY    79  75  89 SE7       29.91F
DODGE CENTER   CLOUDY    79  75  89 E7        29.93F FOG
PRESTON        CLOUDY    76  74  94 SE8       29.97R FOG
OWATONNA       PTSUNNY   81  75  83 E6        29.91F
FARIBAULT      PTSUNNY   79  75  89 E7        29.91S
$$

...ELSEWHERE IN MINNESOTA...


CITY           SKY/WX    TMP DP  RH WIND       PRES   REMARKS
MINNEAPOLIS    CLOUDY    79  72  79 E10       29.90F
INTNL FALLS    CLOUDY    64  62  93 E6        29.96F
DULUTH         SUNNY     73  62  68 E7        29.99F
RED WING       PTSUNNY   77  70  78 E6        29.91F
REDWOOD FALLS  CLOUDY    77  74  90 E7        29.84F
MANKATO        PTSUNNY   79  73  83 E12       29.87F
WORTHINGTON    CLOUDY    77  76  96 S6        29.88F
FAIRMONT       CLOUDY    77  73  88 SE12      29.87F
$$

...SOUTHWEST WISCONSIN...


CITY           SKY/WX    TMP DP  RH WIND       PRES   REMARKS
LA CROSSE      MOSUNNY   78  75  90 E6        29.94F
PRAIRIE DU CHI HVY RAIN  78  75  91 E3        29.95R
BOSCOBEL       FOG       78  76  93 N3        29.97R VSB 1/2
LONE ROCK      FOG       77  76  96 CALM      29.97S VSB 1
PLATTEVILLE    PTSUNNY   78  78 100 SE3       29.99R
FORT MC COY    PTSUNNY   71  68  91 CALM      29.98S
CAMP DOUGLAS   PTSUNNY   70  70 100 CALM      29.97F
MAUSTON-NEW LI FOG       72  72 100 CALM      29.97F VSB 1/2
VIROQUA        CLOUDY    77  77 100 E5        29.99S VSB<1/4
WIS DELLS      CLOUDY    75  74  95 CALM      29.98F FOG
$$

...ELSEWHERE IN WISCONSIN...


CITY           SKY/WX    TMP DP  RH WIND       PRES   REMARKS
MILWAUKEE      MOSUNNY   84  76  76 CALM      29.98S HX  93
MADISON        PTSUNNY   82  77  84 NE3       29.97F HX  90
GREEN BAY      SUNNY     76  69  79 CALM      29.99R
EAU CLAIRE     SUNNY     74  70  87 NE6       29.96F
BLACK RVR FLS  FAIR      70  70 100 NE3       29.97F
MEDFORD        SUNNY     71  67  88 NE5       30.02S
WAUSAU         SUNNY     74  68  81 CALM      29.99F
WIS RAPIDS     SUNNY     77  66  68 E7        30.00F
MARSHFIELD     SUNNY     77  67  71 E6        30.00F
RICE LAKE      SUNNY     71  68  88 CALM      29.99F
$$

...NORTHEAST IOWA...


CITY           SKY/WX    TMP DP  RH WIND       PRES   REMARKS
WATERLOO       CLOUDY    79  76  90 S9        29.92R
DUBUQUE        SUNNY     80  76  87 SE6       29.98F
DECORAH        RAIN      75  66  73 S8G24     29.92F
MASON CITY     CLOUDY    78  76  93 SE12      29.93F
CHARLES CITY   MOSUNNY   77  77 100 SE7G13    29.94R
OELWEIN        CLOUDY    77  77 100 SE6       29.95S
$$

...ELSEWHERE IN IOWA...


CITY           SKY/WX    TMP DP  RH WIND       PRES   REMARKS
DES MOINES     CLOUDY    82  76  81 S10       29.89S
IOWA CITY      PTSUNNY   80  78  94 SE7       29.96S
FORT DODGE     CLOUDY    77  75  94 S6        29.94R THUNDER
MARSHALLTOWN   CLOUDY    79  77  94 E8        29.92F
CEDAR RAPIDS   MOSUNNY   79  79 100 SE6       29.94F
$$

...NORTHERN ILLINOIS...


CITY           SKY/WX    TMP DP  RH WIND       PRES   REMARKS
CHICAGO-OHARE  PTSUNNY   81  75  82 CALM      29.99S
CHICAGO-MIDWAY PTSUNNY   83  75  77 CALM      29.98F HX  90
MOLINE         SUNNY     80  75  84 SE3       29.96F
ROCKFORD       MOSUNNY   80  76  87 SE3       29.99F
PEORIA         SUNNY     79  77  94 S6        30.00R
$$

NOTE: "FAIR" INDICATES FEW OR NO CLOUDS BELOW 12,000 FEET WITH NO
SIGNIFICANT WEATHER AND/OR OBSTRUCTIONS TO VISIBILITY. WIND
SPEEDS ARE IN MILES-PER-HOUR.




USA.gov is the U.S. government's official web portal to all federal, state and local government web resources and services.